Tracking 19795 objects as of 19-Jul-2019
HD Live streaming from Space Station
objects crossing your sky now

SATCOM 1

Track SATCOM 1 now!
SATCOM 1 is classified as:


NORAD ID: 8476
Int'l Code: 1975-117A
Perigee: 35,919.3 km
Apogee: 36,044.7 km
Inclination: 13.0 °
Period: 1,445.7 minutes
Semi major axis: 42352 km
RCS: 2.5118 m2 (large)
Launch date: December 13, 1975
Source: United States (US)
Launch site: AIR FORCE EASTERN TEST RANGE (AFETR)
aabbcc
Your satellite tracking list
Your tracking list is empty




NASA's NSSDC Master Catalog

Two Line Element Set (TLE):
1  8476U 75117A   19199.77443979 -.00000335  00000-0  00000+0 0  9996
2  8476  13.0240 327.6566 0014812 205.6808 166.5763  0.99604019104486
Source of the keplerian elements: AFSPC